Weather Roundup
Issued by NWS Chicago, IL

Home | Current Version | Previous Version | Text Only | Print | Product List | Glossary On
Versions: 1 2 3 4 5 6 7 8 9 10 11 12 13 14 15 16 17 18 19 20 21 22 23 24 25 26 27 28 29 30 31 32 33 34 35 36 37 38 39 40 41 42 43 44 45 46 47 48 49 50
000
NZUS59 KLOT 301210
HRRLOT

CHICAGO AREA WEATHER ROUNDUP
NATIONAL WEATHER SERVICE CHICAGO/ROMEOVILLE IL
600 AM CST FRI JAN 30 2015

NOTE: "FAIR" INDICATES FEW OR NO CLOUDS BELOW 12,000 FEET WITH NO
SIGNIFICANT WEATHER AND/OR OBSTRUCTIONS TO VISIBILITY.

* THESE STATIONS ARE NOT UNDER NWS QUALITY CONTROL. THEY ALSO MAY NOT
  REPORT WEATHER SUCH AS PRECIPITATION OR FOG.

ILZ005-006-012>014-019>023-301300-
NORTHEAST ILLINOIS

CITY           SKY/WX    TMP DP  RH WIND       PRES   REMARKS
OHARE          PTCLDY    21   9  59 N13       30.46R WCI   9
6HR MIN TEMP:  21; 6HR MAX TEMP:  29; 6HR PCP: TRACE;

MIDWAY         PTCLDY    24   9  52 NW13      30.46R WCI  12
6HR MIN TEMP:  24; 6HR MAX TEMP:  32; 6HR PCP: TRACE;

AURORA         CLOUDY    23  16  74 NW14      30.47R WCI  11
6HR MIN TEMP:  20; 6HR MAX TEMP:  30;

LANSING*       CLEAR     24   9  52 N9        30.45R WCI  14
JOLIET*        CLEAR     22  10  60 N6        30.48R WCI  15
WAUKEGAN         N/A     18   9  68 NW6       30.46R WCI  10
6HR MIN TEMP:  18; 6HR MAX TEMP:  27;

DUPAGE AIRPORT CLOUDY    23  10  57 N12       30.46R WCI  12
6HR MIN TEMP:  22; 6HR MAX TEMP:  29; 6HR PCP: TRACE;

WHEELING       CLEAR     21   8  57 N10       30.48R WCI  10
6HR MIN TEMP:  21; 6HR MAX TEMP:  29;

KANKAKEE*      CLEAR     25  13  59 N9        30.47R WCI  15
MORRIS*        CLEAR     18  15  89 NW6       30.48R WCI   9
LEWIS AIRPORT* CLEAR     21  10  61 N7        30.47R WCI  13
NORTHERLY IS     N/A     25  10  53 NW13        N/A  WCI  14
$$

WIZ051-052-058>065-066-070>072-301300-
SOUTHEAST WISCONSIN

CITY           SKY/WX    TMP DP  RH WIND       PRES   REMARKS
MILWAUKEE      PTCLDY    19   8  62 NW10      30.47R WCI   7
6HR MIN TEMP:  19; 6HR MAX TEMP:  26;

KENOSHA*       CLEAR     18   9  68 NW9       30.47R WCI   7
RACINE*        CLEAR     19   9  65 NW7       30.48R WCI  10
BURLINGTON     CLEAR     16   5  62 N6        30.48R WCI   7
WAUKESHA       CLEAR     14   5  67 NW6       30.47R WCI   5
WEST BEND      CLOUDY    16   7  67 NW3       30.46R
$$

INZ001>003-010>013-019-020-301300-
NORTHWEST INDIANA

CITY           SKY/WX    TMP DP  RH WIND       PRES   REMARKS
GARY*          MOCLDY    27   7  43 NW14G25   30.45R WCI  15
MICHIGAN CITY* NOT AVBL
RENSSELAER*    NOT AVBL
VALPARAISO     CLOUDY    25  14  63 N15G22    30.42R WCI  13
$$

LMZ740>746-301300-
SOUTHERN LAKE MICHIGAN

STATION/POSITION TIME  SKY/WX   TEMP WIND        PRES    VSBY
                                AIR  DIR/SP/G
                 (UTC)          (F)  (DEG/KT/KT) (MB)    (MI)
HARRISON CRIB    1200            25  330/ 20/ 24   N/A
BURNHAM HARBOR   1200            25  320/ 17       N/A
CALUMET HARBOR   1200            24  300/  7/ 11   N/A
BURNS HARBOR     NOT AVBL
MICHIGAN CITY    1200            27  340/ 22/ 28   N/A
$$

ABBREVIATIONS USED IN REMARKS
   TC - TEMPERATURE IN CELSIUS
  WCI - WIND CHILL INDEX
   HX - HEAT INDEX
  VSB - VISIBILITY
$$


USA.gov is the U.S. government's official web portal to all federal, state and local government web resources and services.